Time,TemperatureF,DewpointF,PressureIn,WindDirection,WindDirectionDegrees,WindSpeedMPH,WindSpeedGustMPH,Humidity,HourlyPrecipIn,Conditions,Clouds,dailyrainin,SoftwareType,DateUTC
2013-03-13 00:00:00,49.6,45.0,30.20,ESE,119,0.0,0.0,84,0.00,,,0.00,VWS V14.01,2013-03-13 07:00:00,
2013-03-13 00:05:00,49.3,45.0,30.20,ESE,119,0.0,0.0,85,0.00,,,0.00,VWS V14.01,2013-03-13 07:05:00,
2013-03-13 00:10:00,49.0,44.7,30.20,ESE,118,0.0,0.0,85,0.00,,,0.00,VWS V14.01,2013-03-13 07:10:00,
2013-03-13 00:15:00,49.1,45.1,30.20,ESE,118,0.0,0.0,86,0.00,,,0.00,VWS V14.01,2013-03-13 07:15:00,
2013-03-13 00:20:00,49.3,45.3,30.20,ESE,119,0.0,0.0,86,0.00,,,0.00,VWS V14.01,2013-03-13 07:20:00,
2013-03-13 00:25:00,49.2,45.2,30.20,ESE,118,0.0,0.0,86,0.00,,,0.00,VWS V14.01,2013-03-13 07:25:00,
2013-03-13 00:30:00,49.1,45.1,30.20,ESE,118,0.0,0.0,86,0.00,,,0.00,VWS V14.01,2013-03-13 07:30:00,
2013-03-13 00:35:00,49.0,45.0,30.20,ESE,118,0.0,0.0,86,0.00,,,0.00,VWS V14.01,2013-03-13 07:35:00,
2013-03-13 00:40:00,49.2,45.2,30.20,ESE,118,0.0,0.0,86,0.00,,,0.00,VWS V14.01,2013-03-13 07:40:00,
2013-03-13 00:45:00,49.2,45.2,30.21,SE,126,0.0,1.0,86,0.00,,,0.00,VWS V14.01,2013-03-13 07:45:00,
2013-03-13 00:50:00,49.2,45.2,30.21,SE,125,0.0,1.0,86,0.00,,,0.00,VWS V14.01,2013-03-13 07:50:00,
2013-03-13 00:55:00,49.2,45.2,30.21,SE,125,0.0,1.0,86,0.00,,,0.00,VWS V14.01,2013-03-13 07:55:00,
2013-03-13 01:00:00,49.2,45.2,30.21,SE,126,0.0,0.0,86,0.00,,,0.00,VWS V14.01,2013-03-13 08:00:00,
2013-03-13 01:05:00,49.1,45.4,30.20,SE,125,0.0,0.0,87,0.00,,,0.00,VWS V14.01,2013-03-13 08:05:00,
2013-03-13 01:10:00,49.2,45.5,30.20,SE,126,0.0,0.0,87,0.00,,,0.00,VWS V14.01,2013-03-13 08:10:00,
2013-03-13 01:15:00,49.0,45.0,30.20,SE,125,0.0,0.0,86,0.00,,,0.00,VWS V14.01,2013-03-13 08:15:00,
2013-03-13 01:20:00,48.7,44.7,30.20,SE,126,0.0,0.0,86,0.00,,,0.00,VWS V14.01,2013-03-13 08:20:00,
2013-03-13 01:25:00,48.4,44.4,30.20,SE,125,0.0,0.0,86,0.00,,,0.00,VWS V14.01,2013-03-13 08:25:00,
2013-03-13 01:30:00,48.1,44.4,30.20,SE,126,0.0,0.0,87,0.00,,,0.00,VWS V14.01,2013-03-13 08:30:00,
2013-03-13 01:35:00,48.0,44.3,30.20,SE,125,0.0,0.0,87,0.00,,,0.00,VWS V14.01,2013-03-13 08:35:00,
2013-03-13 01:40:00,48.0,44.3,30.20,SE,126,0.0,0.0,87,0.00,,,0.00,VWS V14.01,2013-03-13 08:40:00,
2013-03-13 01:45:00,47.7,44.0,30.20,SE,126,0.0,0.0,87,0.00,,,0.00,VWS V14.01,2013-03-13 08:45:00,
2013-03-13 01:50:00,47.6,44.2,30.20,SE,125,0.0,0.0,88,0.00,,,0.00,VWS V14.01,2013-03-13 08:50:00,
2013-03-13 01:55:00,47.5,44.1,30.20,SE,126,0.0,0.0,88,0.00,,,0.00,VWS V14.01,2013-03-13 08:55:00,
2013-03-13 02:00:00,47.5,44.1,30.20,SE,126,0.0,0.0,88,0.00,,,0.00,VWS V14.01,2013-03-13 09:00:00,
2013-03-13 02:05:00,47.4,44.0,30.20,SE,126,0.0,0.0,88,0.00,,,0.00,VWS V14.01,2013-03-13 09:05:00,
2013-03-13 02:10:00,47.5,44.4,30.20,SE,125,0.0,0.0,89,0.00,,,0.00,VWS V14.01,2013-03-13 09:10:00,
2013-03-13 02:15:00,47.5,44.4,30.21,SE,126,0.0,0.0,89,0.00,,,0.00,VWS V14.01,2013-03-13 09:15:00,
2013-03-13 02:20:00,47.7,44.3,30.21,SE,126,0.0,0.0,88,0.00,,,0.00,VWS V14.01,2013-03-13 09:20:00,
2013-03-13 02:25:00,47.7,44.3,30.21,SE,125,0.0,0.0,88,0.00,,,0.00,VWS V14.01,2013-03-13 09:25:00,
2013-03-13 02:30:00,47.5,44.1,30.21,SE,125,0.0,0.0,88,0.00,,,0.00,VWS V14.01,2013-03-13 09:30:00,
2013-03-13 02:35:00,47.2,43.8,30.21,SE,125,0.0,0.0,88,0.00,,,0.00,VWS V14.01,2013-03-13 09:35:00,
2013-03-13 02:40:00,47.0,43.6,30.20,SE,125,0.0,0.0,88,0.00,,,0.00,VWS V14.01,2013-03-13 09:40:00,
2013-03-13 02:45:00,46.7,43.6,30.20,SE,125,0.0,0.0,89,0.00,,,0.00,VWS V14.01,2013-03-13 09:45:00,
2013-03-13 02:50:00,46.6,43.5,30.20,SE,126,0.0,0.0,89,0.00,,,0.00,VWS V14.01,2013-03-13 09:50:00,
2013-03-13 02:55:00,46.4,43.3,30.20,SE,125,0.0,0.0,89,0.00,,,0.00,VWS V14.01,2013-03-13 09:55:00,
2013-03-13 03:00:00,46.3,43.5,30.20,SE,125,0.0,0.0,90,0.00,,,0.00,VWS V14.01,2013-03-13 10:00:00,
2013-03-13 03:05:00,46.0,43.0,30.20,SE,125,0.0,0.0,89,0.00,,,0.00,VWS V14.01,2013-03-13 10:05:00,
2013-03-13 03:10:00,45.6,42.5,30.20,SE,125,0.0,0.0,89,0.00,,,0.00,VWS V14.01,2013-03-13 10:10:00,
2013-03-13 03:15:00,45.7,43.2,30.20,SE,125,0.0,0.0,91,0.00,,,0.00,VWS V14.01,2013-03-13 10:15:00,
2013-03-13 03:20:00,45.7,42.9,30.20,SE,126,0.0,0.0,90,0.00,,,0.00,VWS V14.01,2013-03-13 10:20:00,
2013-03-13 03:25:00,45.4,42.6,30.20,SE,125,0.0,0.0,90,0.00,,,0.00,VWS V14.01,2013-03-13 10:25:00,
2013-03-13 03:30:00,45.3,42.8,30.20,SE,125,0.0,0.0,91,0.00,,,0.00,VWS V14.01,2013-03-13 10:30:00,
2013-03-13 03:35:00,45.2,42.7,30.20,SE,126,0.0,0.0,91,0.00,,,0.00,VWS V14.01,2013-03-13 10:35:00,
2013-03-13 03:40:00,45.1,42.6,30.20,SE,125,0.0,0.0,91,0.00,,,0.00,VWS V14.01,2013-03-13 10:40:00,
2013-03-13 03:45:00,45.1,42.9,30.20,SE,126,0.0,0.0,92,0.00,,,0.00,VWS V14.01,2013-03-13 10:45:00,
2013-03-13 03:50:00,44.9,42.4,30.21,SE,125,0.0,0.0,91,0.00,,,0.00,VWS V14.01,2013-03-13 10:50:00,
2013-03-13 03:55:00,44.7,42.2,30.21,SE,126,0.0,0.0,91,0.00,,,0.00,VWS V14.01,2013-03-13 10:55:00,
2013-03-13 04:00:00,44.5,42.3,30.21,SE,126,0.0,0.0,92,0.00,,,0.00,VWS V14.01,2013-03-13 11:00:00,
2013-03-13 04:05:00,44.3,42.1,30.21,SE,126,0.0,0.0,92,0.00,,,0.00,VWS V14.01,2013-03-13 11:05:00,
2013-03-13 04:10:00,44.2,42.0,30.21,SE,125,0.0,0.0,92,0.00,,,0.00,VWS V14.01,2013-03-13 11:10:00,
2013-03-13 04:15:00,44.1,41.9,30.21,SE,125,0.0,0.0,92,0.00,,,0.00,VWS V14.01,2013-03-13 11:15:00,
2013-03-13 04:20:00,44.2,42.3,30.21,SE,126,0.0,0.0,93,0.00,,,0.00,VWS V14.01,2013-03-13 11:20:00,
2013-03-13 04:25:00,44.2,42.3,30.22,SE,125,0.0,0.0,93,0.00,,,0.00,VWS V14.01,2013-03-13 11:25:00,
2013-03-13 04:30:00,44.1,41.9,30.22,SE,125,0.0,0.0,92,0.00,,,0.00,VWS V14.01,2013-03-13 11:30:00,
2013-03-13 04:35:00,43.9,41.7,30.21,SE,125,0.0,0.0,92,0.00,,,0.00,VWS V14.01,2013-03-13 11:35:00,
2013-03-13 04:40:00,43.8,41.6,30.21,SE,126,0.0,0.0,92,0.00,,,0.00,VWS V14.01,2013-03-13 11:40:00,
2013-03-13 04:45:00,43.6,41.4,30.22,SE,125,0.0,0.0,92,0.00,,,0.00,VWS V14.01,2013-03-13 11:45:00,
2013-03-13 04:50:00,43.4,41.2,30.22,SE,125,0.0,0.0,92,0.00,,,0.00,VWS V14.01,2013-03-13 11:50:00,
2013-03-13 04:55:00,43.1,40.9,30.22,SE,125,0.0,0.0,92,0.00,,,0.00,VWS V14.01,2013-03-13 11:55:00,
2013-03-13 05:00:00,42.7,40.5,30.22,SE,126,0.0,0.0,92,0.00,,,0.00,VWS V14.01,2013-03-13 12:00:00,
2013-03-13 05:05:00,42.7,40.8,30.22,SE,125,0.0,0.0,93,0.00,,,0.00,VWS V14.01,2013-03-13 12:05:00,
2013-03-13 05:10:00,42.7,40.8,30.22,SE,125,0.0,0.0,93,0.00,,,0.00,VWS V14.01,2013-03-13 12:10:00,
2013-03-13 05:15:00,42.6,40.7,30.22,SE,125,0.0,0.0,93,0.00,,,0.00,VWS V14.01,2013-03-13 12:15:00,
2013-03-13 05:20:00,42.3,40.4,30.23,SE,125,0.0,0.0,93,0.00,,,0.00,VWS V14.01,2013-03-13 12:20:00,
2013-03-13 05:25:00,42.2,40.3,30.22,SE,126,0.0,0.0,93,0.00,,,0.00,VWS V14.01,2013-03-13 12:25:00,
2013-03-13 05:30:00,42.2,40.6,30.22,SE,125,0.0,0.0,94,0.00,,,0.00,VWS V14.01,2013-03-13 12:30:00,
2013-03-13 05:35:00,42.5,40.9,30.22,SE,126,0.0,0.0,94,0.00,,,0.00,VWS V14.01,2013-03-13 12:35:00,
2013-03-13 05:40:00,42.6,41.0,30.22,SE,126,0.0,0.0,94,0.00,,,0.00,VWS V14.01,2013-03-13 12:40:00,
2013-03-13 05:45:00,42.4,40.8,30.22,SE,125,0.0,0.0,94,0.00,,,0.00,VWS V14.01,2013-03-13 12:45:00,
2013-03-13 05:50:00,42.2,40.6,30.22,SE,125,0.0,0.0,94,0.00,,,0.00,VWS V14.01,2013-03-13 12:50:00,
2013-03-13 05:55:00,42.0,40.1,30.22,SE,125,0.0,0.0,93,0.00,,,0.00,VWS V14.01,2013-03-13 12:55:00,
2013-03-13 06:00:00,42.0,40.4,30.22,SE,125,0.0,0.0,94,0.00,,,0.00,VWS V14.01,2013-03-13 13:00:00,
2013-03-13 06:05:00,42.3,40.7,30.22,SE,126,0.0,0.0,94,0.00,,,0.00,VWS V14.01,2013-03-13 13:05:00,
2013-03-13 06:10:00,42.3,40.7,30.22,SE,125,0.0,0.0,94,0.00,,,0.00,VWS V14.01,2013-03-13 13:10:00,
2013-03-13 06:15:00,42.3,40.7,30.22,SE,125,0.0,0.0,94,0.00,,,0.00,VWS V14.01,2013-03-13 13:15:00,
2013-03-13 06:20:00,42.2,40.6,30.22,SE,126,0.0,0.0,94,0.00,,,0.00,VWS V14.01,2013-03-13 13:20:00,
2013-03-13 06:25:00,42.3,40.7,30.22,SE,125,0.0,0.0,94,0.00,,,0.00,VWS V14.01,2013-03-13 13:25:00,
2013-03-13 06:30:00,42.5,41.2,30.23,SE,125,0.0,0.0,95,0.00,,,0.00,VWS V14.01,2013-03-13 13:30:00,
2013-03-13 06:35:00,42.6,41.0,30.23,SE,125,0.0,0.0,94,0.00,,,0.00,VWS V14.01,2013-03-13 13:35:00,
2013-03-13 06:40:00,42.5,40.9,30.23,SE,126,0.0,0.0,94,0.00,,,0.00,VWS V14.01,2013-03-13 13:40:00,
2013-03-13 06:45:00,42.4,40.8,30.23,SE,126,0.0,0.0,94,0.00,,,0.00,VWS V14.01,2013-03-13 13:45:00,
2013-03-13 06:50:00,42.4,40.8,30.23,SE,126,0.0,0.0,94,0.00,,,0.00,VWS V14.01,2013-03-13 13:50:00,
2013-03-13 06:55:00,42.4,40.8,30.23,SE,125,0.0,0.0,94,0.00,,,0.00,VWS V14.01,2013-03-13 13:55:00,
2013-03-13 07:00:00,42.2,40.6,30.23,SE,126,0.0,0.0,94,0.00,,,0.00,VWS V14.01,2013-03-13 14:00:00,
2013-03-13 07:05:00,42.1,40.5,30.23,SE,125,0.0,0.0,94,0.00,,,0.00,VWS V14.01,2013-03-13 14:05:00,
2013-03-13 07:10:00,42.0,40.4,30.23,SE,126,0.0,0.0,94,0.00,,,0.00,VWS V14.01,2013-03-13 14:10:00,
2013-03-13 07:15:00,41.8,40.2,30.23,SE,125,0.0,0.0,94,0.00,,,0.00,VWS V14.01,2013-03-13 14:15:00,
2013-03-13 07:20:00,42.1,40.8,30.23,SE,126,0.0,0.0,95,0.00,,,0.00,VWS V14.01,2013-03-13 14:20:00,
2013-03-13 07:25:00,42.3,41.0,30.23,SE,126,0.0,0.0,95,0.00,,,0.00,VWS V14.01,2013-03-13 14:25:00,
2013-03-13 07:30:00,42.2,40.6,30.23,SE,125,0.0,0.0,94,0.00,,,0.00,VWS V14.01,2013-03-13 14:30:00,
2013-03-13 07:35:00,42.1,40.5,30.23,SE,126,0.0,0.0,94,0.00,,,0.00,VWS V14.01,2013-03-13 14:35:00,
2013-03-13 07:40:00,42.2,40.9,30.23,SE,125,0.0,0.0,95,0.00,,,0.00,VWS V14.01,2013-03-13 14:40:00,
2013-03-13 07:45:00,42.2,40.6,30.23,SE,126,0.0,0.0,94,0.00,,,0.00,VWS V14.01,2013-03-13 14:45:00,
2013-03-13 07:50:00,42.4,41.1,30.24,SE,126,0.0,0.0,95,0.00,,,0.00,VWS V14.01,2013-03-13 14:50:00,
2013-03-13 07:55:00,42.5,41.2,30.24,SE,125,0.0,0.0,95,0.00,,,0.00,VWS V14.01,2013-03-13 14:55:00,
2013-03-13 08:00:00,42.5,41.2,30.24,SE,126,0.0,0.0,95,0.00,,,0.00,VWS V14.01,2013-03-13 15:00:00,
2013-03-13 08:05:00,42.7,41.4,30.24,SE,126,0.0,0.0,95,0.00,,,0.00,VWS V14.01,2013-03-13 15:05:00,
2013-03-13 08:10:00,43.1,41.8,30.24,SE,125,0.0,0.0,95,0.00,,,0.00,VWS V14.01,2013-03-13 15:10:00,
2013-03-13 08:15:00,43.5,42.2,30.25,SE,125,0.0,0.0,95,0.00,,,0.00,VWS V14.01,2013-03-13 15:15:00,
2013-03-13 08:20:00,44.2,43.1,30.24,SE,125,0.0,0.0,96,0.00,,,0.00,VWS V14.01,2013-03-13 15:20:00,
2013-03-13 08:25:00,45.0,43.7,30.24,SE,126,0.0,0.0,95,0.00,,,0.00,VWS V14.01,2013-03-13 15:25:00,
2013-03-13 08:30:00,45.7,44.1,30.24,East,98,1.0,1.0,94,0.00,,,0.00,VWS V14.01,2013-03-13 15:30:00,
2013-03-13 08:35:00,46.9,45.0,30.24,ESE,107,0.0,1.0,93,0.00,,,0.00,VWS V14.01,2013-03-13 15:35:00,
2013-03-13 08:40:00,47.7,45.2,30.23,ESE,107,0.0,1.0,91,0.00,,,0.00,VWS V14.01,2013-03-13 15:40:00,
2013-03-13 08:45:00,48.7,45.9,30.22,SE,140,0.0,2.0,90,0.00,,,0.00,VWS V14.01,2013-03-13 15:45:00,
2013-03-13 08:50:00,49.3,46.2,30.22,SE,139,0.0,2.0,89,0.00,,,0.00,VWS V14.01,2013-03-13 15:50:00,
2013-03-13 08:55:00,49.8,46.4,30.22,SE,140,0.0,2.0,88,0.00,,,0.00,VWS V14.01,2013-03-13 15:55:00,
2013-03-13 09:00:00,50.6,47.2,30.23,SE,139,0.0,0.0,88,0.00,,,0.00,VWS V14.01,2013-03-13 16:00:00,
2013-03-13 09:05:00,51.3,47.6,30.23,SE,140,0.0,0.0,87,0.00,,,0.00,VWS V14.01,2013-03-13 16:05:00,
2013-03-13 09:10:00,51.9,47.8,30.23,SE,139,0.0,0.0,86,0.00,,,0.00,VWS V14.01,2013-03-13 16:10:00,
2013-03-13 09:15:00,52.7,48.3,30.23,NNE,18,2.0,2.0,85,0.00,,,0.00,VWS V14.01,2013-03-13 16:15:00,
2013-03-13 09:20:00,54.0,48.6,30.23,NW,309,1.0,2.0,82,0.00,,,0.00,VWS V14.01,2013-03-13 16:20:00,
2013-03-13 09:25:00,55.2,48.8,30.23,NW,321,0.0,2.0,79,0.00,,,0.00,VWS V14.01,2013-03-13 16:25:00,
2013-03-13 09:30:00,56.3,49.2,30.23,West,277,0.0,1.0,77,0.00,,,0.00,VWS V14.01,2013-03-13 16:30:00,
2013-03-13 09:35:00,57.5,49.7,30.23,West,273,1.0,1.0,75,0.00,,,0.00,VWS V14.01,2013-03-13 16:35:00,
2013-03-13 09:40:00,58.2,49.6,30.23,NNW,329,1.0,2.0,73,0.00,,,0.00,VWS V14.01,2013-03-13 16:40:00,
2013-03-13 09:45:00,59.0,50.4,30.23,WNW,296,1.0,2.0,73,0.00,,,0.00,VWS V14.01,2013-03-13 16:45:00,
2013-03-13 09:50:00,59.7,50.3,30.23,NNW,336,0.0,2.0,71,0.00,,,0.00,VWS V14.01,2013-03-13 16:50:00,
2013-03-13 09:55:00,60.1,50.3,30.24,West,261,1.0,3.0,70,0.00,,,0.00,VWS V14.01,2013-03-13 16:55:00,
2013-03-13 10:00:00,60.4,50.2,30.24,WNW,285,0.0,2.0,69,0.00,,,0.00,VWS V14.01,2013-03-13 17:00:00,
2013-03-13 10:05:00,60.9,50.3,30.24,WNW,285,3.0,3.0,68,0.00,,,0.00,VWS V14.01,2013-03-13 17:05:00,
2013-03-13 10:10:00,61.4,51.2,30.24,NW,323,1.0,3.0,69,0.00,,,0.00,VWS V14.01,2013-03-13 17:10:00,
2013-03-13 10:15:00,61.8,51.5,30.24,NW,313,0.0,3.0,69,0.00,,,0.00,VWS V14.01,2013-03-13 17:15:00,
2013-03-13 10:20:00,62.6,51.5,30.24,WNW,294,0.0,3.0,67,0.00,,,0.00,VWS V14.01,2013-03-13 17:20:00,
2013-03-13 10:25:00,63.3,51.8,30.23,WSW,248,1.0,3.0,66,0.00,,,0.00,VWS V14.01,2013-03-13 17:25:00,
2013-03-13 10:35:00,64.1,51.3,30.24,SW,217,0.0,0.0,63,0.00,,,0.00,VWS V14.01,2013-03-13 17:35:00,
2013-03-13 10:40:00,64.5,52.1,30.24,West,281,1.0,2.0,64,0.00,,,0.00,VWS V14.01,2013-03-13 17:40:00,
2013-03-13 10:45:00,64.7,52.3,30.23,NW,309,0.0,3.0,64,0.00,,,0.00,VWS V14.01,2013-03-13 17:45:00,
2013-03-13 10:50:00,65.3,53.2,30.23,East,79,1.0,3.0,65,0.00,,,0.00,VWS V14.01,2013-03-13 17:50:00,
2013-03-13 10:55:00,65.8,53.3,30.23,ENE,64,1.0,3.0,64,0.00,,,0.00,VWS V14.01,2013-03-13 17:55:00,
2013-03-13 11:00:00,66.3,53.3,30.23,West,275,0.0,0.0,63,0.00,,,0.00,VWS V14.01,2013-03-13 18:00:00,
2013-03-13 11:05:00,67.0,53.6,30.23,WSW,250,0.0,1.0,62,0.00,,,0.00,VWS V14.01,2013-03-13 18:05:00,
2013-03-13 11:10:00,67.4,53.5,30.23,WNW,297,1.0,4.0,61,0.00,,,0.00,VWS V14.01,2013-03-13 18:10:00,
2013-03-13 11:15:00,67.7,53.8,30.23,WSW,242,2.0,4.0,61,0.00,,,0.00,VWS V14.01,2013-03-13 18:15:00,
2013-03-13 11:20:00,68.2,55.1,30.23,West,278,2.0,4.0,63,0.00,,,0.00,VWS V14.01,2013-03-13 18:20:00,
2013-03-13 11:25:00,68.4,54.9,30.23,NW,325,2.0,4.0,62,0.00,,,0.00,VWS V14.01,2013-03-13 18:25:00,
2013-03-13 11:30:00,68.4,54.9,30.23,West,267,1.0,3.0,62,0.00,,,0.00,VWS V14.01,2013-03-13 18:30:00,
2013-03-13 11:35:00,68.8,55.7,30.23,WNW,285,1.0,4.0,63,0.00,,,0.00,VWS V14.01,2013-03-13 18:35:00,
2013-03-13 11:40:00,69.2,55.6,30.23,West,269,0.0,4.0,62,0.00,,,0.00,VWS V14.01,2013-03-13 18:40:00,
2013-03-13 11:45:00,69.6,55.6,30.23,NNW,328,0.0,4.0,61,0.00,,,0.00,VWS V14.01,2013-03-13 18:45:00,
2013-03-13 11:50:00,70.3,55.8,30.23,WNW,290,1.0,4.0,60,0.00,,,0.00,VWS V14.01,2013-03-13 18:50:00,
2013-03-13 11:55:00,70.5,56.0,30.23,East,80,1.0,4.0,60,0.00,,,0.00,VWS V14.01,2013-03-13 18:55:00,
2013-03-13 12:00:00,70.6,55.1,30.23,SSE,166,0.0,3.0,58,0.00,,,0.00,VWS V14.01,2013-03-13 19:00:00,
2013-03-13 12:05:00,70.6,54.6,30.23,SE,128,0.0,5.0,57,0.00,,,0.00,VWS V14.01,2013-03-13 19:05:00,
2013-03-13 12:10:00,70.9,54.4,30.22,ENE,74,3.0,6.0,56,0.00,,,0.00,VWS V14.01,2013-03-13 19:10:00,
2013-03-13 12:15:00,70.6,54.6,30.22,ESE,106,2.0,6.0,57,0.00,,,0.00,VWS V14.01,2013-03-13 19:15:00,
2013-03-13 12:20:00,71.2,55.2,30.22,East,86,1.0,6.0,57,0.00,,,0.00,VWS V14.01,2013-03-13 19:20:00,
2013-03-13 12:25:00,71.6,55.1,30.22,NNE,26,4.0,6.0,56,0.00,,,0.00,VWS V14.01,2013-03-13 19:25:00,
2013-03-13 12:30:00,71.8,54.8,30.22,NE,39,2.0,7.0,55,0.00,,,0.00,VWS V14.01,2013-03-13 19:30:00,
2013-03-13 12:35:00,71.9,55.4,30.22,North,352,1.0,8.0,56,0.00,,,0.00,VWS V14.01,2013-03-13 19:35:00,
2013-03-13 12:40:00,72.2,55.2,30.22,WNW,299,1.0,8.0,55,0.00,,,0.00,VWS V14.01,2013-03-13 19:40:00,
2013-03-13 12:45:00,72.8,54.7,30.21,East,85,4.0,8.0,53,0.00,,,0.00,VWS V14.01,2013-03-13 19:45:00,
2013-03-13 12:49:00,72.9,54.3,30.21,East,82,1.0,8.0,52,0.00,,,0.00,VWS V14.01,2013-03-13 19:49:00,
2013-03-13 12:54:00,72.8,54.2,30.21,East,91,3.0,8.0,52,0.00,,,0.00,VWS V14.01,2013-03-13 19:54:00,
2013-03-13 12:59:00,72.8,54.7,30.21,NNW,340,3.0,5.0,53,0.00,,,0.00,VWS V14.01,2013-03-13 19:59:00,
2013-03-13 13:00:00,72.8,54.7,30.21,NW,309,1.0,8.0,53,0.00,,,0.00,VWS V14.01,2013-03-13 20:00:00,
2013-03-13 13:04:00,73.0,54.9,30.20,NNW,328,2.0,6.0,53,0.00,,,0.00,VWS V14.01,2013-03-13 20:04:00,
2013-03-13 13:09:00,73.6,54.4,30.20,West,267,2.0,7.0,51,0.00,,,0.00,VWS V14.01,2013-03-13 20:09:00,
2013-03-13 13:14:00,73.7,54.5,30.20,East,82,3.0,7.0,51,0.00,,,0.00,VWS V14.01,2013-03-13 20:14:00,
2013-03-13 13:19:00,73.6,54.4,30.20,ENE,70,2.0,7.0,51,0.00,,,0.00,VWS V14.01,2013-03-13 20:19:00,
2013-03-13 13:24:00,73.9,54.1,30.20,NE,47,4.0,9.0,50,0.00,,,0.00,VWS V14.01,2013-03-13 20:24:00,
2013-03-13 13:29:00,74.5,54.7,30.20,East,84,3.0,3.0,50,0.00,,,0.00,VWS V14.01,2013-03-13 20:29:00,
2013-03-13 13:30:00,74.3,54.5,30.20,NE,53,2.0,9.0,50,0.00,,,0.00,VWS V14.01,2013-03-13 20:30:00,
2013-03-13 13:34:00,74.8,54.4,30.20,ENE,61,1.0,7.0,49,0.00,,,0.00,VWS V14.01,2013-03-13 20:34:00,
2013-03-13 13:39:00,75.2,54.8,30.19,NE,42,1.0,7.0,49,0.00,,,0.00,VWS V14.01,2013-03-13 20:39:00,
2013-03-13 13:44:00,75.3,54.8,30.19,NE,34,4.0,7.0,49,0.00,,,0.00,VWS V14.01,2013-03-13 20:44:00,
2013-03-13 13:49:00,75.1,54.1,30.19,ENE,70,8.0,8.0,48,0.00,,,0.00,VWS V14.01,2013-03-13 20:49:00,
2013-03-13 13:54:00,74.9,54.5,30.19,ENE,78,2.0,8.0,49,0.00,,,0.00,VWS V14.01,2013-03-13 20:54:00,
2013-03-13 13:59:00,75.6,55.7,30.19,ENE,63,6.0,8.0,50,0.00,,,0.00,VWS V14.01,2013-03-13 20:59:00,
2013-03-13 14:00:00,75.4,54.9,30.19,NW,313,1.0,8.0,49,0.00,,,0.00,VWS V14.01,2013-03-13 21:00:00,
2013-03-13 14:04:00,75.5,55.0,30.18,WNW,301,3.0,8.0,49,0.00,,,0.00,VWS V14.01,2013-03-13 21:04:00,
2013-03-13 14:09:00,75.3,54.8,30.18,NE,46,1.0,8.0,49,0.00,,,0.00,VWS V14.01,2013-03-13 21:09:00,
2013-03-13 14:14:00,75.9,55.4,30.18,SW,235,1.0,8.0,49,0.00,,,0.00,VWS V14.01,2013-03-13 21:14:00,
2013-03-13 14:19:00,76.6,54.9,30.18,WNW,297,2.0,8.0,47,0.00,,,0.00,VWS V14.01,2013-03-13 21:19:00,
2013-03-13 14:24:00,76.6,54.9,30.18,East,92,2.0,8.0,47,0.00,,,0.00,VWS V14.01,2013-03-13 21:24:00,
2013-03-13 14:29:00,76.4,54.1,30.18,NW,316,1.0,4.0,46,0.00,,,0.00,VWS V14.01,2013-03-13 21:29:00,
2013-03-13 14:30:00,76.6,54.9,30.18,ENE,68,1.0,8.0,47,0.00,,,0.00,VWS V14.01,2013-03-13 21:30:00,
2013-03-13 14:34:00,76.5,54.8,30.18,NW,317,1.0,4.0,47,0.00,,,0.00,VWS V14.01,2013-03-13 21:34:00,
2013-03-13 14:39:00,76.2,53.9,30.18,NE,51,2.0,6.0,46,0.00,,,0.00,VWS V14.01,2013-03-13 21:39:00,
2013-03-13 14:44:00,75.9,54.2,30.18,NE,40,2.0,6.0,47,0.00,,,0.00,VWS V14.01,2013-03-13 21:44:00,
2013-03-13 14:49:00,75.9,54.2,30.17,East,96,3.0,6.0,47,0.00,,,0.00,VWS V14.01,2013-03-13 21:49:00,
2013-03-13 14:54:00,75.7,53.5,30.18,NNE,22,3.0,6.0,46,0.00,,,0.00,VWS V14.01,2013-03-13 21:54:00,
2013-03-13 14:59:00,75.6,53.4,30.18,NE,34,1.0,6.0,46,0.00,,,0.00,VWS V14.01,2013-03-13 21:59:00,
2013-03-13 15:00:00,75.6,53.4,30.18,NNE,33,3.0,6.0,46,0.00,,,0.00,VWS V14.01,2013-03-13 22:00:00,
2013-03-13 15:04:00,75.1,52.3,30.17,North,8,1.0,6.0,45,0.00,,,0.00,VWS V14.01,2013-03-13 22:04:00,
2013-03-13 15:09:00,74.9,53.3,30.17,East,91,4.0,6.0,47,0.00,,,0.00,VWS V14.01,2013-03-13 22:09:00,
2013-03-13 15:14:00,75.2,53.6,30.17,SSW,197,1.0,6.0,47,0.00,,,0.00,VWS V14.01,2013-03-13 22:14:00,
2013-03-13 15:19:00,75.3,54.3,30.17,NNW,338,0.0,8.0,48,0.00,,,0.00,VWS V14.01,2013-03-13 22:19:00,
2013-03-13 15:24:00,75.6,54.0,30.17,NNE,33,2.0,8.0,47,0.00,,,0.00,VWS V14.01,2013-03-13 22:24:00,
2013-03-13 15:29:00,75.9,55.4,30.17,North,353,3.0,3.0,49,0.00,,,0.00,VWS V14.01,2013-03-13 22:29:00,
2013-03-13 15:30:00,75.7,54.6,30.17,NNE,22,0.0,8.0,48,0.00,,,0.00,VWS V14.01,2013-03-13 22:30:00,
2013-03-13 15:34:00,76.0,54.9,30.17,NNE,20,3.0,5.0,48,0.00,,,0.00,VWS V14.01,2013-03-13 22:34:00,
2013-03-13 15:39:00,76.5,54.8,30.17,North,352,3.0,5.0,47,0.00,,,0.00,VWS V14.01,2013-03-13 22:39:00,
2013-03-13 15:44:00,76.4,54.7,30.17,West,280,1.0,5.0,47,0.00,,,0.00,VWS V14.01,2013-03-13 22:44:00,
2013-03-13 15:49:00,76.5,54.8,30.17,NNE,20,1.0,5.0,47,0.00,,,0.00,VWS V14.01,2013-03-13 22:49:00,
2013-03-13 15:54:00,76.4,54.7,30.17,NNE,25,3.0,5.0,47,0.00,,,0.00,VWS V14.01,2013-03-13 22:54:00,
2013-03-13 15:59:00,76.4,54.7,30.17,NW,325,3.0,5.0,47,0.00,,,0.00,VWS V14.01,2013-03-13 22:59:00,
2013-03-13 16:00:00,76.4,54.7,30.17,NE,36,2.0,5.0,47,0.00,,,0.00,VWS V14.01,2013-03-13 23:00:00,
2013-03-13 16:04:00,76.3,54.6,30.17,NE,44,2.0,6.0,47,0.00,,,0.00,VWS V14.01,2013-03-13 23:04:00,
2013-03-13 16:09:00,76.5,54.8,30.17,NNE,26,0.0,6.0,47,0.00,,,0.00,VWS V14.01,2013-03-13 23:09:00,
2013-03-13 16:14:00,76.6,55.5,30.17,ENE,65,3.0,6.0,48,0.00,,,0.00,VWS V14.01,2013-03-13 23:14:00,
2013-03-13 16:19:00,76.6,55.5,30.17,ESE,113,1.0,6.0,48,0.00,,,0.00,VWS V14.01,2013-03-13 23:19:00,
2013-03-13 16:24:00,76.7,55.5,30.16,East,93,0.0,6.0,48,0.00,,,0.00,VWS V14.01,2013-03-13 23:24:00,
2013-03-13 16:29:00,76.7,55.0,30.16,ENE,76,2.0,5.0,47,0.00,,,0.00,VWS V14.01,2013-03-13 23:29:00,
2013-03-13 16:30:00,76.7,54.4,30.16,West,263,1.0,6.0,46,0.00,,,0.00,VWS V14.01,2013-03-13 23:30:00,
2013-03-13 16:34:00,76.9,55.2,30.16,NE,52,1.0,5.0,47,0.00,,,0.00,VWS V14.01,2013-03-13 23:34:00,
2013-03-13 16:39:00,76.9,54.6,30.16,West,271,1.0,5.0,46,0.00,,,0.00,VWS V14.01,2013-03-13 23:39:00,
2013-03-13 16:44:00,77.0,55.2,30.16,NE,40,1.0,5.0,47,0.00,,,0.00,VWS V14.01,2013-03-13 23:44:00,
2013-03-13 16:49:00,77.2,54.8,30.16,NE,36,2.0,5.0,46,0.00,,,0.00,VWS V14.01,2013-03-13 23:49:00,
2013-03-13 16:54:00,77.1,54.8,30.16,North,358,0.0,5.0,46,0.00,,,0.00,VWS V14.01,2013-03-13 23:54:00,
2013-03-13 16:59:00,76.9,54.6,30.15,NNE,27,3.0,3.0,46,0.00,,,0.00,VWS V14.01,2013-03-13 23:59:00,
2013-03-13 17:00:00,77.0,54.7,30.16,NW,323,1.0,5.0,46,0.00,,,0.00,VWS V14.01,2013-03-14 00:00:00,
2013-03-13 17:04:00,76.6,54.3,30.15,NNW,332,2.0,5.0,46,0.00,,,0.00,VWS V14.01,2013-03-14 00:04:00,
2013-03-13 17:09:00,76.6,53.7,30.15,ENE,77,0.0,5.0,45,0.00,,,0.00,VWS V14.01,2013-03-14 00:09:00,
2013-03-13 17:14:00,76.6,54.3,30.15,NE,46,2.0,5.0,46,0.00,,,0.00,VWS V14.01,2013-03-14 00:14:00,
2013-03-13 17:19:00,76.4,54.1,30.15,ENE,71,0.0,5.0,46,0.00,,,0.00,VWS V14.01,2013-03-14 00:19:00,
2013-03-13 17:24:00,76.7,53.8,30.15,NNE,18,1.0,5.0,45,0.00,,,0.00,VWS V14.01,2013-03-14 00:24:00,
2013-03-13 17:29:00,76.4,53.5,30.15,NNW,328,1.0,2.0,45,0.00,,,0.00,VWS V14.01,2013-03-14 00:29:00,
2013-03-13 17:30:00,76.5,53.6,30.15,NE,41,1.0,5.0,45,0.00,,,0.00,VWS V14.01,2013-03-14 00:30:00,
2013-03-13 17:40:00,76.1,53.2,30.15,SE,142,0.0,0.0,45,0.00,,,0.00,VWS V14.01,2013-03-14 00:40:00,
2013-03-13 17:45:00,76.1,53.2,30.14,ENE,59,2.0,2.0,45,0.00,,,0.00,VWS V14.01,2013-03-14 00:45:00,
2013-03-13 17:50:00,75.7,53.5,30.14,NE,44,0.0,5.0,46,0.00,,,0.00,VWS V14.01,2013-03-14 00:50:00,
2013-03-13 17:55:00,75.5,53.3,30.14,NE,40,1.0,5.0,46,0.00,,,0.00,VWS V14.01,2013-03-14 00:55:00,
2013-03-13 18:00:00,75.5,52.7,30.14,ENE,73,1.0,4.0,45,0.00,,,0.00,VWS V14.01,2013-03-14 01:00:00,
2013-03-13 18:05:00,75.3,52.5,30.14,ENE,75,1.0,4.0,45,0.00,,,0.00,VWS V14.01,2013-03-14 01:05:00,
2013-03-13 18:10:00,75.0,52.8,30.14,NE,54,1.0,4.0,46,0.00,,,0.00,VWS V14.01,2013-03-14 01:10:00,
2013-03-13 18:15:00,74.7,52.6,30.14,NE,56,3.0,4.0,46,0.00,,,0.00,VWS V14.01,2013-03-14 01:15:00,
2013-03-13 18:20:00,74.4,52.9,30.14,North,9,0.0,4.0,47,0.00,,,0.00,VWS V14.01,2013-03-14 01:20:00,
2013-03-13 18:25:00,74.0,52.5,30.14,ENE,63,1.0,4.0,47,0.00,,,0.00,VWS V14.01,2013-03-14 01:25:00,
2013-03-13 18:30:00,73.7,52.8,30.14,ENE,78,0.0,1.0,48,0.00,,,0.00,VWS V14.01,2013-03-14 01:30:00,
2013-03-13 18:35:00,73.2,52.9,30.14,NE,34,1.0,2.0,49,0.00,,,0.00,VWS V14.01,2013-03-14 01:35:00,
2013-03-13 18:40:00,72.6,52.9,30.14,South,177,0.0,2.0,50,0.00,,,0.00,VWS V14.01,2013-03-14 01:40:00,
2013-03-13 18:45:00,72.0,51.8,30.14,South,177,0.0,2.0,49,0.00,,,0.00,VWS V14.01,2013-03-14 01:45:00,
2013-03-13 18:50:00,71.5,51.9,30.14,South,178,0.0,2.0,50,0.00,,,0.00,VWS V14.01,2013-03-14 01:50:00,
2013-03-13 18:55:00,70.9,51.9,30.14,South,177,0.0,2.0,51,0.00,,,0.00,VWS V14.01,2013-03-14 01:55:00,
2013-03-13 19:00:00,70.3,52.4,30.14,South,178,0.0,0.0,53,0.00,,,0.00,VWS V14.01,2013-03-14 02:00:00,
2013-03-13 19:05:00,69.6,52.2,30.14,South,178,0.0,0.0,54,0.00,,,0.00,VWS V14.01,2013-03-14 02:05:00,
2013-03-13 19:10:00,69.0,51.7,30.14,South,177,0.0,0.0,54,0.00,,,0.00,VWS V14.01,2013-03-14 02:10:00,
2013-03-13 19:15:00,68.4,52.1,30.14,South,177,0.0,0.0,56,0.00,,,0.00,VWS V14.01,2013-03-14 02:15:00,
2013-03-13 19:20:00,67.7,51.9,30.14,South,177,0.0,0.0,57,0.00,,,0.00,VWS V14.01,2013-03-14 02:20:00,
2013-03-13 19:25:00,67.2,52.4,30.14,South,177,0.0,0.0,59,0.00,,,0.00,VWS V14.01,2013-03-14 02:25:00,
2013-03-13 19:30:00,66.7,52.4,30.14,ESE,120,0.0,0.0,60,0.00,,,0.00,VWS V14.01,2013-03-14 02:30:00,
2013-03-13 19:35:00,66.4,52.6,30.14,East,100,0.0,1.0,61,0.00,,,0.00,VWS V14.01,2013-03-14 02:35:00,
2013-03-13 19:40:00,66.0,52.6,30.14,East,101,0.0,1.0,62,0.00,,,0.00,VWS V14.01,2013-03-14 02:40:00,
2013-03-13 19:45:00,65.6,52.7,30.14,ESE,113,0.0,2.0,63,0.00,,,0.00,VWS V14.01,2013-03-14 02:45:00,
2013-03-13 19:50:00,65.2,52.7,30.14,ESE,113,0.0,2.0,64,0.00,,,0.00,VWS V14.01,2013-03-14 02:50:00,
2013-03-13 19:55:00,64.8,52.3,30.14,ESE,114,0.0,2.0,64,0.00,,,0.00,VWS V14.01,2013-03-14 02:55:00,
2013-03-13 20:00:00,64.5,52.1,30.14,ESE,115,0.0,0.0,64,0.00,,,0.00,VWS V14.01,2013-03-14 03:00:00,
2013-03-13 20:05:00,64.2,52.2,30.14,ESE,116,0.0,0.0,65,0.00,,,0.00,VWS V14.01,2013-03-14 03:05:00,
2013-03-13 20:10:00,63.9,51.9,30.14,ESE,115,0.0,0.0,65,0.00,,,0.00,VWS V14.01,2013-03-14 03:10:00,
2013-03-13 20:15:00,63.5,52.0,30.14,ESE,115,0.0,1.0,66,0.00,,,0.00,VWS V14.01,2013-03-14 03:15:00,
2013-03-13 20:20:00,63.3,51.8,30.14,ESE,121,0.0,1.0,66,0.00,,,0.00,VWS V14.01,2013-03-14 03:20:00,
2013-03-13 20:25:00,62.9,51.8,30.15,SE,127,0.0,1.0,67,0.00,,,0.00,VWS V14.01,2013-03-14 03:25:00,
2013-03-13 20:30:00,62.6,51.5,30.15,SE,125,0.0,0.0,67,0.00,,,0.00,VWS V14.01,2013-03-14 03:30:00,
2013-03-13 20:35:00,62.3,51.6,30.15,SE,126,0.0,0.0,68,0.00,,,0.00,VWS V14.01,2013-03-14 03:35:00,
2013-03-13 20:40:00,61.9,51.6,30.15,SE,126,0.0,0.0,69,0.00,,,0.00,VWS V14.01,2013-03-14 03:40:00,
2013-03-13 20:45:00,61.7,51.4,30.15,SE,143,0.0,1.0,69,0.00,,,0.00,VWS V14.01,2013-03-14 03:45:00,
2013-03-13 20:50:00,61.7,51.8,30.15,ESE,108,0.0,1.0,70,0.00,,,0.00,VWS V14.01,2013-03-14 03:50:00,
2013-03-13 20:55:00,61.5,51.6,30.15,ESE,105,0.0,1.0,70,0.00,,,0.00,VWS V14.01,2013-03-14 03:55:00,
2013-03-13 21:00:00,61.1,51.6,30.15,ESE,105,0.0,0.0,71,0.00,,,0.00,VWS V14.01,2013-03-14 04:00:00,
2013-03-13 21:05:00,60.9,51.5,30.15,East,88,0.0,1.0,71,0.00,,,0.00,VWS V14.01,2013-03-14 04:05:00,
2013-03-13 21:10:00,60.6,51.5,30.15,East,97,0.0,1.0,72,0.00,,,0.00,VWS V14.01,2013-03-14 04:10:00,
2013-03-13 21:15:00,60.3,51.2,30.16,East,96,1.0,1.0,72,0.00,,,0.00,VWS V14.01,2013-03-14 04:15:00,
2013-03-13 21:20:00,60.3,51.2,30.16,ESE,105,0.0,1.0,72,0.00,,,0.00,VWS V14.01,2013-03-14 04:20:00,
2013-03-13 21:25:00,60.2,51.2,30.15,ESE,114,0.0,1.0,72,0.00,,,0.00,VWS V14.01,2013-03-14 04:25:00,
2013-03-13 21:30:00,60.1,51.1,30.16,East,88,0.0,2.0,72,0.00,,,0.00,VWS V14.01,2013-03-14 04:30:00,
2013-03-13 21:35:00,60.1,51.1,30.16,East,98,0.0,2.0,72,0.00,,,0.00,VWS V14.01,2013-03-14 04:35:00,
2013-03-13 21:40:00,59.9,50.9,30.16,East,97,0.0,2.0,72,0.00,,,0.00,VWS V14.01,2013-03-14 04:40:00,
2013-03-13 21:45:00,59.7,51.0,30.16,ESE,121,1.0,2.0,73,0.00,,,0.00,VWS V14.01,2013-03-14 04:45:00,
2013-03-13 21:50:00,59.4,50.8,30.16,SSE,156,0.0,2.0,73,0.00,,,0.00,VWS V14.01,2013-03-14 04:50:00,
2013-03-13 21:55:00,59.2,50.6,30.17,SSE,148,0.0,2.0,73,0.00,,,0.00,VWS V14.01,2013-03-14 04:55:00,
2013-03-13 22:00:00,58.9,50.6,30.17,SE,139,0.0,0.0,74,0.00,,,0.00,VWS V14.01,2013-03-14 05:00:00,
2013-03-13 22:05:00,58.7,50.5,30.17,SE,139,0.0,0.0,74,0.00,,,0.00,VWS V14.01,2013-03-14 05:05:00,
2013-03-13 22:10:00,58.6,50.7,30.17,SE,139,0.0,1.0,75,0.00,,,0.00,VWS V14.01,2013-03-14 05:10:00,
2013-03-13 22:15:00,58.4,50.5,30.17,ENE,77,0.0,1.0,75,0.00,,,0.00,VWS V14.01,2013-03-14 05:15:00,
2013-03-13 22:20:00,58.3,50.4,30.17,ENE,77,0.0,1.0,75,0.00,,,0.00,VWS V14.01,2013-03-14 05:20:00,
2013-03-13 22:25:00,58.1,50.2,30.17,ESE,109,0.0,1.0,75,0.00,,,0.00,VWS V14.01,2013-03-14 05:25:00,
2013-03-13 22:30:00,58.0,50.1,30.17,SSE,147,0.0,0.0,75,0.00,,,0.00,VWS V14.01,2013-03-14 05:30:00,
2013-03-13 22:35:00,57.8,50.3,30.17,SE,139,1.0,1.0,76,0.00,,,0.00,VWS V14.01,2013-03-14 05:35:00,
2013-03-13 22:40:00,57.8,50.3,30.17,SE,137,0.0,1.0,76,0.00,,,0.00,VWS V14.01,2013-03-14 05:40:00,
2013-03-13 22:45:00,57.6,50.1,30.17,SE,139,0.0,1.0,76,0.00,,,0.00,VWS V14.01,2013-03-14 05:45:00,
2013-03-13 22:50:00,57.4,49.9,30.17,SE,136,0.0,1.0,76,0.00,,,0.00,VWS V14.01,2013-03-14 05:50:00,
2013-03-13 22:55:00,57.2,49.7,30.17,SE,136,0.0,1.0,76,0.00,,,0.00,VWS V14.01,2013-03-14 05:55:00,
2013-03-13 23:00:00,56.9,49.4,30.17,SE,136,0.0,0.0,76,0.00,,,0.00,VWS V14.01,2013-03-14 06:00:00,
2013-03-13 23:05:00,56.6,49.5,30.17,SE,136,0.0,0.0,77,0.00,,,0.00,VWS V14.01,2013-03-14 06:05:00,
2013-03-13 23:10:00,56.2,49.1,30.17,SE,136,0.0,0.0,77,0.00,,,0.00,VWS V14.01,2013-03-14 06:10:00,
2013-03-13 23:15:00,55.9,49.5,30.17,SE,136,0.0,0.0,79,0.00,,,0.00,VWS V14.01,2013-03-14 06:15:00,
2013-03-13 23:20:00,55.6,48.9,30.17,SE,136,0.0,0.0,78,0.00,,,0.00,VWS V14.01,2013-03-14 06:20:00,
2013-03-13 23:25:00,55.3,48.9,30.17,SE,136,0.0,0.0,79,0.00,,,0.00,VWS V14.01,2013-03-14 06:25:00,
2013-03-13 23:30:00,54.9,48.9,30.17,SE,136,0.0,0.0,80,0.00,,,0.00,VWS V14.01,2013-03-14 06:30:00,
2013-03-13 23:35:00,54.4,48.4,30.17,SE,136,0.0,0.0,80,0.00,,,0.00,VWS V14.01,2013-03-14 06:35:00,
2013-03-13 23:40:00,54.0,48.3,30.17,SE,136,0.0,0.0,81,0.00,,,0.00,VWS V14.01,2013-03-14 06:40:00,
2013-03-13 23:45:00,53.7,48.3,30.17,SE,136,0.0,0.0,82,0.00,,,0.00,VWS V14.01,2013-03-14 06:45:00,
2013-03-13 23:50:00,53.7,48.3,30.17,SE,134,0.0,0.0,82,0.00,,,0.00,VWS V14.01,2013-03-14 06:50:00,
2013-03-13 23:55:00,53.7,48.3,30.18,SE,134,0.0,0.0,82,0.00,,,0.00,VWS V14.01,2013-03-14 06:55:00,